Location: Tucson
(32.2217°N, 110.9265°W)
Time: 06:58:03
(UTC-07:00)

Tiros 1 - Pass Details

Date: 30 October 2021
Orbit: 629 x 664 km, 48.4° (Epoch: 26 November)

Event Time Altitude Azimuth Distance (km) Brightness Sun altitude
Rises 05:53:43 0° 195° (SSW) 2,974 10.5 -10.2°
Reaches altitude 10° 05:56:30 10° 179° (S) 2,067 9.9 -9.6°
Maximum altitude 06:00:07 22° 130° (SE) 1,450 9.8 -8.9°
Drops below altitude 10° 06:03:45 10° 80° (E) 2,074 11.1 -8.1°
Sets 06:06:32 0° 65° (ENE) 2,987 11.5 -7.6°
